When you browse on this site, cookies collect data to enhance your experience and personalize the content and advertising you see.
Visit our Privacy Policy to learn more. By continuing to use the site, you agree to this use of cookies and data.
  • In Schweiz
  • Länderverzeichnis
  • Für 7 Tage
  • Wassertemperatur
  • Satellitenkarten
  • Wetterkarte
  • Widgets
  • user-avatar
    Anmelden

    Stündliche Wetter Serednya

    Heute, 23 Januar, Mittwoch

    Zeit Temperatur Niederschläge Wind Luftdruck Luftfeuchtigkeit
    00:00 -12°C° 0.2 mm 4 m/S 740 mmHg 94%
    01:00 -12°C° 0.2 mm 4 m/S 739 mmHg 93%
    02:00 -12°C° 0 mm 3 m/S 739 mmHg 93%
    03:00 -12°C° 0.2 mm 3 m/S 738 mmHg 93%
    04:00 -11°C° 0.2 mm 4 m/S 737 mmHg 93%
    05:00 -11°C° 0.2 mm 4 m/S 737 mmHg 93%
    06:00 -11°C° 0.2 mm 4 m/S 736 mmHg 93%
    07:00 -11°C° 0.2 mm 4 m/S 736 mmHg 93%
    08:00 -11°C° 0 mm 4 m/S 736 mmHg 93%
    09:00 -11°C° 0.2 mm 4 m/S 736 mmHg 93%
    10:00 -10°C° 0.2 mm 4 m/S 736 mmHg 92%
    11:00 -10°C° 0.2 mm 4 m/S 735 mmHg 92%
    12:00 -10°C° 0.3 mm 4 m/S 735 mmHg 92%
    13:00 -10°C° 0.3 mm 4 m/S 735 mmHg 92%
    14:00 -10°C° 0 mm 4 m/S 734 mmHg 92%
    15:00 -9°C° 0.3 mm 3 m/S 734 mmHg 93%
    16:00 -9°C° 0.3 mm 3 m/S 734 mmHg 94%
    17:00 -9°C° 0.3 mm 3 m/S 734 mmHg 95%
    18:00 -9°C° 0.2 mm 3 m/S 734 mmHg 95%
    19:00 -8°C° 0.2 mm 2 m/S 733 mmHg 95%
    20:00 -8°C° 0.2 mm 2 m/S 733 mmHg 96%
    21:00 -8°C° 0 mm 2 m/S 734 mmHg 96%
    22:00 -8°C° 0 mm 2 m/S 734 mmHg 96%
    23:00 -9°C° 0 mm 2 m/S 734 mmHg 96%

    Morgen, 24 Januar, Donnerstag

    Zeit Temperatur Niederschläge Wind Luftdruck Luftfeuchtigkeit
    00:00 -9°C° 0 mm 2 m/S 734 mmHg 96%
    01:00 -9°C° 0 mm 2 m/S 734 mmHg 96%
    02:00 -9°C° 0 mm 2 m/S 735 mmHg 96%
    03:00 -8°C° 0 mm 2 m/S 735 mmHg 96%
    04:00 -8°C° 0 mm 2 m/S 735 mmHg 96%
    05:00 -9°C° 0 mm 3 m/S 736 mmHg 96%
    06:00 -10°C° 0 mm 3 m/S 736 mmHg 95%
    07:00 -10°C° 0 mm 3 m/S 736 mmHg 95%
    08:00 -10°C° 0 mm 3 m/S 736 mmHg 95%
    09:00 -11°C° 0 mm 4 m/S 737 mmHg 93%
    10:00 -10°C° 0 mm 4 m/S 737 mmHg 91%
    11:00 -10°C° 0 mm 4 m/S 738 mmHg 90%
    12:00 -10°C° 0 mm 4 m/S 738 mmHg 89%
    13:00 -10°C° 0 mm 4 m/S 738 mmHg 88%
    14:00 -9°C° 0 mm 4 m/S 738 mmHg 88%
    15:00 -10°C° 0 mm 4 m/S 738 mmHg 88%
    16:00 -10°C° 0 mm 4 m/S 738 mmHg 88%
    17:00 -10°C° 0 mm 4 m/S 738 mmHg 89%
    18:00 -11°C° 0 mm 4 m/S 739 mmHg 90%
    19:00 -12°C° 0 mm 5 m/S 739 mmHg 90%
    20:00 -12°C° 0 mm 5 m/S 739 mmHg 91%
    21:00 -12°C° 0 mm 5 m/S 739 mmHg 91%
    22:00 -12°C° 0 mm 5 m/S 739 mmHg 91%
    23:00 -12°C° 0 mm 5 m/S 739 mmHg 90%

    übermorgen, 25 Januar, Freitag

    Zeit Temperatur Niederschläge Wind Luftdruck Luftfeuchtigkeit
    00:00 -12°C° 0 mm 5 m/S 739 mmHg 91%
    01:00 -13°C° 0 mm 5 m/S 740 mmHg 91%
    02:00 -13°C° 0 mm 5 m/S 740 mmHg 91%
    03:00 -13°C° 0 mm 5 m/S 740 mmHg 92%
    04:00 -13°C° 0 mm 5 m/S 739 mmHg 92%
    05:00 -13°C° 0 mm 5 m/S 739 mmHg 93%
    06:00 -14°C° 0 mm 5 m/S 739 mmHg 93%
    07:00 -14°C° 0 mm 5 m/S 739 mmHg 93%
    08:00 -14°C° 0 mm 5 m/S 740 mmHg 93%
    09:00 -14°C° 0.1 mm 5 m/S 740 mmHg 93%
    10:00 -14°C° 0.1 mm 5 m/S 740 mmHg 93%
    11:00 -13°C° 0.1 mm 5 m/S 740 mmHg 93%
    12:00 -12°C° 0.2 mm 5 m/S 740 mmHg 93%
    13:00 -11°C° 0.2 mm 5 m/S 739 mmHg 93%
    14:00 -9°C° 0.2 mm 4 m/S 739 mmHg 93%
    15:00 -10°C° 0.2 mm 5 m/S 739 mmHg 93%
    16:00 -10°C° 0.2 mm 5 m/S 739 mmHg 94%
    17:00 -8°C° 0.2 mm 5 m/S 739 mmHg 94%
    18:00 -10°C° 0.1 mm 5 m/S 738 mmHg 94%
    19:00 -10°C° 0.1 mm 5 m/S 738 mmHg 94%
    20:00 -9°C° 0.1 mm 4 m/S 738 mmHg 94%
    21:00 -9°C° 0 mm 4 m/S 738 mmHg 94%
    22:00 -8°C° 0 mm 4 m/S 738 mmHg 95%
    23:00 -7°C° 0 mm 3 m/S 738 mmHg 95%

    26 Januar, Samstag

    Zeit Temperatur Niederschläge Wind Luftdruck Luftfeuchtigkeit
    00:00 -7°C° 0 mm 3 m/S 738 mmHg 95%
    01:00 -7°C° 0 mm 3 m/S 738 mmHg 95%
    02:00 -5°C° 0 mm 2 m/S 738 mmHg 96%
    03:00 -5°C° 0 mm 2 m/S 737 mmHg 96%
    04:00 -5°C° 0 mm 2 m/S 737 mmHg 96%
    05:00 -5°C° 0 mm 2 m/S 737 mmHg 96%
    06:00 -5°C° 0 mm 2 m/S 737 mmHg 96%
    07:00 -2°C° 0 mm 1 m/S 737 mmHg 96%
    08:00 -2°C° 0 mm 1 m/S 737 mmHg 96%
    09:00 -2°C° 0 mm 1 m/S 737 mmHg 96%
    10:00 -1°C° 0 mm 1 m/S 737 mmHg 95%
    11:00 0°C° 0 mm 1 m/S 737 mmHg 95%
    12:00 0°C° 0.1 mm 1 m/S 737 mmHg 95%
    13:00 -2°C° 0.1 mm 2 m/S 736 mmHg 96%
    14:00 -2°C° 0.1 mm 2 m/S 736 mmHg 96%
    15:00 -3°C° 0.1 mm 2 m/S 736 mmHg 95%
    16:00 -5°C° 0.1 mm 3 m/S 736 mmHg 95%
    17:00 -5°C° 0.1 mm 3 m/S 736 mmHg 95%
    18:00 -6°C° 0.2 mm 3 m/S 736 mmHg 95%
    19:00 -7°C° 0.2 mm 3 m/S 736 mmHg 95%
    20:00 -7°C° 0.2 mm 3 m/S 736 mmHg 95%
    21:00 -8°C° 0.3 mm 3 m/S 736 mmHg 95%
    22:00 -8°C° 0.3 mm 3 m/S 736 mmHg 95%
    23:00 -7°C° 0.3 mm 2 m/S 736 mmHg 94%

    27 Januar, Sonntag

    Zeit Temperatur Niederschläge Wind Luftdruck Luftfeuchtigkeit
    00:00 -8°C° 0 mm 2 m/S 735 mmHg 95%
    01:00 -8°C° 0 mm 2 m/S 735 mmHg 95%
    02:00 -8°C° 0 mm 2 m/S 735 mmHg 96%
    03:00 -8°C° 0 mm 2 m/S 735 mmHg 96%
    04:00 -9°C° 0 mm 2 m/S 735 mmHg 96%
    05:00 -9°C° 0 mm 2 m/S 735 mmHg 97%
    06:00 -9°C° 0 mm 2 m/S 735 mmHg 96%
    07:00 -9°C° 0 mm 2 m/S 735 mmHg 96%
    08:00 -9°C° 0 mm 2 m/S 735 mmHg 96%
    09:00 -9°C° 0 mm 2 m/S 735 mmHg 95%
    10:00 -9°C° 0 mm 2 m/S 735 mmHg 94%
    11:00 -7°C° 0 mm 1 m/S 735 mmHg 93%
    12:00 -7°C° 0 mm 1 m/S 735 mmHg 91%
    13:00 -7°C° 0 mm 1 m/S 734 mmHg 90%
    14:00 -6°C° 0 mm 1 m/S 734 mmHg 89%
    15:00 -7°C° 0 mm 1 m/S 734 mmHg 90%
    16:00 -8°C° 0 mm 0 m/S 734 mmHg 91%
    17:00 -9°C° 0 mm 0 m/S 734 mmHg 92%
    18:00 -9°C° 0 mm 0 m/S 735 mmHg 92%
    19:00 -10°C° 0 mm 1 m/S 735 mmHg 93%
    20:00 -11°C° 0 mm 1 m/S 735 mmHg 93%
    21:00 -11°C° 0 mm 1 m/S 735 mmHg 93%
    22:00 -11°C° 0 mm 1 m/S 736 mmHg 93%
    23:00 -11°C° 0 mm 1 m/S 736 mmHg 93%

    28 Januar, Montag

    Zeit Temperatur Niederschläge Wind Luftdruck Luftfeuchtigkeit
    00:00 -13°C° 0 mm 2 m/S 736 mmHg 93%
    01:00 -13°C° 0 mm 2 m/S 736 mmHg 93%
    02:00 -13°C° 0 mm 2 m/S 736 mmHg 93%
    03:00 -13°C° 0 mm 2 m/S 736 mmHg 92%
    04:00 -13°C° 0 mm 2 m/S 736 mmHg 92%
    05:00 -13°C° 0 mm 2 m/S 736 mmHg 92%
    06:00 -13°C° 0 mm 2 m/S 736 mmHg 92%
    07:00 -13°C° 0 mm 2 m/S 737 mmHg 92%
    08:00 -14°C° 0 mm 3 m/S 737 mmHg 92%
    09:00 -13°C° 0 mm 3 m/S 737 mmHg 91%
    10:00 -12°C° 0 mm 3 m/S 737 mmHg 90%
    11:00 -10°C° 0 mm 3 m/S 738 mmHg 89%
    12:00 -9°C° 0 mm 3 m/S 738 mmHg 89%
    13:00 -9°C° 0 mm 4 m/S 737 mmHg 89%
    14:00 -8°C° 0 mm 4 m/S 737 mmHg 90%
    15:00 -9°C° 0 mm 4 m/S 737 mmHg 91%
    16:00 -8°C° 0 mm 3 m/S 737 mmHg 91%
    17:00 -9°C° 0 mm 3 m/S 737 mmHg 92%
    18:00 -9°C° 0 mm 4 m/S 738 mmHg 93%
    19:00 -8°C° 0 mm 4 m/S 738 mmHg 93%
    20:00 -8°C° 0 mm 4 m/S 738 mmHg 93%
    21:00 -8°C° 0 mm 4 m/S 738 mmHg 93%
    22:00 -7°C° 0 mm 4 m/S 738 mmHg 93%
    23:00 -7°C° 0 mm 4 m/S 738 mmHg 94%
    Mehr zeigen